Weather History for K1A5 - January, 2005

Change the Weather History Date:

Saturday, January 1, 2005

  Actual Average (KTOC) Record (KTOC)
Temperature  
Mean Temperature 52 °F -  
Max Temperature 68 °F 54 °F 58 °F (2015)
Min Temperature 35 °F 36 °F 29 °F (2015)
Degree Days  
Heating Degree Days 14    
Growing Degree Days 2 (Base 50)    
Moisture  
Dew Point 39 °F    
Average Humidity 76    
Maximum Humidity 93    
Minimum Humidity 40    
Precipitation  
Precipitation 0.00 in - - ()
Sea Level Pressure  
Sea Level Pressure 30.44 in    
Wind  
Wind Speed 0 mph (NW)    
Max Wind Speed 4 mph    
Max Gust Speed -    
Visibility 6 miles    
Events Fog    
Averages and records for this station are not official NWS values.
T = Trace of Precipitation, MM = Missing Value Source: NWS Daily Summary

Daily Weather History Graph

Daily Weather History Graph

Search for Another Location

Airport or City:

Trip Planner

Search our weather history database for the weather conditions in past years. The results will help you decide how hot, cold, wet, or windy it might be!

Date:

Astronomy

Jan. 01, 2005 Rise Set
Actual Time 7:42 AM EST 5:32 PM EST
Civil Twilight 7:14 AM EST 6:00 PM EST
Nautical Twilight 6:42 AM EST 6:32 PM EST
Astronomical Twilight 6:11 AM EST 7:03 PM EST
Moon 11:12 PM EST (1/1) 11:29 AM EST (1/1)
Length of Visible Light 10h 46m
Length of Day
9h 50m
Waning Gibbous, 70% of the Moon is Illuminated
Jan 1
Waning Gibbous
Jan 3
Last Quarter
Jan 10
New
Jan 17
First Quarter
Jan 25
Full

Hourly Weather History & Observations

Time (EST) Temp. Windchill Dew Point Humidity Pressure Visibility Wind Dir Wind Speed Gust Speed Precip Events Conditions
12:20 AM 35.6 °F - 33.8 °F 93% 30.44 in 2.5 mi Calm Calm - N/A   Clear
12:40 AM 35.6 °F - 33.8 °F 93% 30.44 in 4.0 mi Calm Calm - N/A   Clear
1:20 AM 35.6 °F - 33.8 °F 93% 30.44 in 5.0 mi Calm Calm - N/A   Scattered Clouds
1:40 AM 35.6 °F - 33.8 °F 93% 30.44 in 3.0 mi Calm Calm - N/A   Scattered Clouds
2:00 AM 37.4 °F - 33.8 °F 87% 30.44 in 1.2 mi Calm Calm - N/A   Mostly Cloudy
2:20 AM 35.6 °F 32.8 °F 33.8 °F 93% 30.44 in 3.0 mi WSW 3.5 mph - N/A   Scattered Clouds
2:40 AM 35.6 °F - 33.8 °F 93% 30.44 in 4.0 mi Calm Calm - N/A   Mostly Cloudy
3:00 AM 35.6 °F - 33.8 °F 93% 30.44 in 1.5 mi Calm Calm - N/A   Overcast
3:20 AM 35.6 °F - 33.8 °F 93% 30.44 in 0.5 mi Calm Calm - N/A Fog Fog
3:40 AM 35.6 °F - 33.8 °F 93% 30.44 in 0.2 mi Calm Calm - N/A Fog Fog
4:20 AM 35.6 °F - 33.8 °F 93% 30.44 in 0.2 mi Calm Calm - N/A Fog Fog
5:00 AM 35.6 °F - 33.8 °F 93% 30.45 in 0.2 mi Calm Calm - N/A Fog Fog
5:20 AM 35.6 °F - 33.8 °F 93% 30.45 in 0.2 mi Calm Calm - N/A Fog Fog
5:40 AM 35.6 °F - 33.8 °F 93% 30.45 in 0.2 mi Calm Calm - N/A Fog Fog
6:00 AM 35.6 °F - 33.8 °F 93% 30.46 in 0.2 mi Calm Calm - N/A Fog Fog
6:20 AM 35.6 °F - 33.8 °F 93% 30.46 in 0.2 mi Calm Calm - N/A Fog Fog
6:40 AM 35.6 °F - 33.8 °F 93% 30.47 in 0.2 mi Calm Calm - N/A Fog Fog
7:00 AM 35.6 °F - 33.8 °F 93% 30.47 in 0.2 mi Calm Calm - N/A Fog Fog
7:20 AM 35.6 °F - 33.8 °F 93% 30.47 in 0.2 mi Calm Calm - N/A Fog Fog
7:40 AM 35.6 °F - 33.8 °F 93% 30.47 in 0.2 mi Calm Calm - N/A Fog Fog
8:20 AM 35.6 °F - 33.8 °F 93% 30.49 in 0.2 mi Calm Calm - N/A Fog Fog
8:40 AM 37.4 °F - 35.6 °F 93% 30.49 in 0.2 mi Calm Calm - N/A Fog Fog
9:20 AM 37.4 °F - 35.6 °F 93% 30.51 in 0.2 mi Calm Calm - N/A Fog Fog
9:40 AM 39.2 °F - 37.4 °F 93% 30.51 in 0.2 mi Calm Calm - N/A Fog Fog
10:20 AM 41.0 °F - 37.4 °F 87% 30.51 in 0.2 mi Calm Calm - N/A Fog Fog
10:40 AM 42.8 °F - 39.2 °F 87% 30.51 in 0.2 mi Calm Calm - N/A Fog Fog
11:20 AM 46.4 °F - 44.6 °F 93% 30.49 in 10.0 mi Calm Calm - N/A   Scattered Clouds
11:40 AM 50.0 °F - 46.4 °F 87% 30.48 in 10.0 mi Calm Calm - N/A   Clear
12:20 PM 55.4 °F - 44.6 °F 67% 30.46 in 10.0 mi Calm Calm - N/A   Clear
12:40 PM 59.0 °F - 44.6 °F 59% 30.44 in 10.0 mi Calm Calm - N/A   Clear
1:00 PM 60.8 °F - 44.6 °F 55% 30.43 in 10.0 mi Calm Calm - N/A   Clear
1:20 PM 62.6 °F - 44.6 °F 52% 30.42 in 10.0 mi Calm Calm - N/A   Clear
1:40 PM 64.4 °F - 44.6 °F 49% 30.41 in 10.0 mi Calm Calm - N/A   Clear
2:00 PM 66.2 °F - 42.8 °F 43% 30.40 in 10.0 mi Calm Calm - N/A   Clear
2:20 PM 68.0 °F - 42.8 °F 40% 30.39 in 10.0 mi Calm Calm - N/A   Clear
2:40 PM 68.0 °F - 42.8 °F 40% 30.39 in 10.0 mi Calm Calm - N/A   Clear
3:00 PM 68.0 °F - 42.8 °F 40% 30.38 in 10.0 mi Calm Calm - N/A   Clear
3:20 PM 68.0 °F - 42.8 °F 40% 30.38 in 10.0 mi Calm Calm - N/A   Clear
3:40 PM 68.0 °F - 42.8 °F 40% 30.38 in 10.0 mi Calm Calm - N/A   Clear
4:00 PM 68.0 °F - 44.6 °F 43% 30.38 in 10.0 mi NNE 3.5 mph - N/A   Clear
4:20 PM 68.0 °F - 44.6 °F 43% 30.38 in 10.0 mi Calm Calm - N/A   Clear
4:40 PM 66.2 °F - 44.6 °F 46% 30.39 in 10.0 mi SW 3.5 mph - N/A   Clear
5:20 PM 66.2 °F - 44.6 °F 46% 30.40 in 10.0 mi Calm Calm - N/A   Clear
5:40 PM 64.4 °F - 44.6 °F 49% 30.40 in 10.0 mi Calm Calm - N/A   Clear
6:00 PM 62.6 °F - 44.6 °F 52% 30.41 in 10.0 mi Calm Calm - N/A   Clear
6:20 PM 60.8 °F - 44.6 °F 55% 30.41 in 10.0 mi Calm Calm - N/A   Clear
6:40 PM 59.0 °F - 44.6 °F 59% 30.41 in 10.0 mi Calm Calm - N/A   Clear
7:00 PM 57.2 °F - 44.6 °F 63% 30.42 in 10.0 mi Calm Calm - N/A   Clear
7:20 PM 53.6 °F - 44.6 °F 72% 30.42 in 10.0 mi Calm Calm - N/A   Clear
7:40 PM 51.8 °F - 44.6 °F 76% 30.43 in 10.0 mi Calm Calm - N/A   Clear
8:00 PM 50.0 °F - 42.8 °F 76% 30.43 in 10.0 mi NE 3.5 mph - N/A   Clear
8:20 PM 48.2 °F - 42.8 °F 82% 30.44 in 10.0 mi Calm Calm - N/A   Clear
8:40 PM 46.4 °F - 42.8 °F 87% 30.44 in 10.0 mi Calm Calm - N/A   Clear
9:00 PM 46.4 °F - 42.8 °F 87% 30.44 in 10.0 mi Calm Calm - N/A   Clear
9:20 PM 44.6 °F - 41.0 °F 87% 30.45 in 10.0 mi Calm Calm - N/A   Clear
9:40 PM 42.8 °F - 41.0 °F 93% 30.45 in 10.0 mi Calm Calm - N/A   Clear
10:00 PM 42.8 °F - 39.2 °F 87% 30.46 in 7.0 mi Calm Calm - N/A   Clear
10:20 PM 42.8 °F - 39.2 °F 87% 30.46 in 10.0 mi Calm Calm - N/A   Clear
11:00 PM 41.0 °F - 37.4 °F 87% 30.46 in 7.0 mi Calm Calm - N/A   Clear
11:40 PM 41.0 °F - 37.4 °F 87% 30.47 in 7.0 mi Calm Calm - N/A   Clear